Simultaneous Nadir Overpasses (SNOs) Predictions

Prediction of SNOs between LANDSAT-8 and METOP-A Satellite Orbit:

Table of predicted SNOs for the next 14.0 days since TLE Epoch: 3/4/2016
Index Date (LANDSAT-8) Time (LANDSAT-8) Lat,Lon (LANDSAT-8) SZA (LANDSAT-8 ) Date (METOP-A) Time (METOP-A) Lat,Lon (METOP-A) SZA (METOP-A ) Distance(km) Time Diff (sec)
1 03/05/2016 05:33:53 81.12, 136.03 88.69 03/05/2016 05:33:17 81.11, 135.95 88.67 1.52 36
2 03/05/2016 06:23:19 -81.14, -56.04 91.28 03/05/2016 06:23:56 -81.14, -55.98 91.26 1.04 37
3 03/08/2016 01:08:08 81.11,-157.66 87.60 03/08/2016 01:07:42 81.11,-157.79 87.58 2.27 26
4 03/08/2016 01:57:34 -81.13, 10.30 92.37 03/08/2016 01:58:21 -81.13, 10.33 92.35 0.70 47
5 03/10/2016 20:42:22 81.12, -91.05 86.55 03/10/2016 20:42:06 81.11, -91.18 86.52 2.32 16
6
